Location: Melbourne
(37.8120°S, 144.9677°E)
Time: 07:43:47
(UTC+10:00)

ISS - Visible Passes

Search period start: 24 September 2017 00:00
Search period end: 04 October 2017 01:00
Orbit: 401 x 407 km, 51.6° (Epoch: 24 September)

Date Brightness Start Highest point End Pass type
(mag) Time Alt. Az. Time Alt. Az. Time Alt. Az.
29 Sep -0.7 05:00:08 10° NE 05:01:01 11° NE 05:01:53 10° ENE visible
01 Oct -1.9 05:49:34 10° NNW 05:52:26 27° NE 05:55:19 10° ESE visible
02 Oct -1.1 04:59:31 13° NE 05:00:14 14° NE 05:02:01 10° E visible
03 Oct -3.7 05:42:13 26° NW 05:43:57 75° NE 05:47:18 10° SE visible
